Погода в Ашеве

Россия / Псковская область     57°06′45″N   29°44′52″E
темп.,
°C
ветер,
м/с
пор.,
м/с
влажн.,
%
обл.,
%
осадки,
мм/ч
давл.,
гПа
погр.,
м
18 августа, чт
чт1800:00+19юв22716 0.0 101613
03:00+18ю12788 0.0 101714
06:00+18ююв1180100 0.1 101811
09:00+23вюв2364100 0.1 1018240
12:00+27юв3444100 0.0 1018810
15:00+29вюв233792 0.0 10181562
18:00+29в24460 0.0 1018410
21:00+22вюв12635 0.0 101911
19 августа, пт
пт1900:00+19юв22705 0.0 102024
03:00+18юв23735 0.0 102050
06:00+17вюв35770 0.0 102169
09:00+22вюв36580 0.0 1022295
12:00+27вюв46430 0.0 10211097
15:00+29вюв46340 0.0 10202059
18:00+27вюв46423 0.0 1020985
21:00+20юв311670 0.0 1021280
20 августа, сб
сб2000:00+19юв411750 0.0 1022442
03:00+17вюв3107976 0.0 1022442
06:00+17вюв31082100 0.0 1022436
09:00+19вюв4872100 0.0 1022473
12:00+21вюв576183 0.0 1021866
15:00+22в675690 0.0 10201467
18:00+20юв577091 0.1 1020803
21:00+16в489273 0.1 1020340
21 августа, вс
вс2100:00+16вюв2797100 0.1 1019348
03:00+16вюв399653 0.8 1018344
06:00+14вюв399789 0.3 1018281
09:00+18юв498468 0.3 1018489
12:00+22ююв575648 0.0 10181138
15:00+24ююв565096 0.0 10171273
18:00+22юв57602 0.0 10171005
21:00+18вюв38836 0.0 1017241
22 августа, пн
пн2200:00+16юв4107536 0.0 1017283
03:00+17юв3966100 0.0 1017298
06:00+17юв3106499 0.0 1018335
09:00+19юв4956100 0.0 1018333
12:00+25юв583696 0.0 1018717
15:00+26ююв693349 0.0 1018797
18:00+26юв39435 0.0 1017890
21:00+19ююв311565 0.0 1018202